シューメーカー-レヴィ第1彗星

192P/Shoemaker-Levy 1 (2024)

English version
Home page
Updated on March 24, 2025

---------------------------------------------------------------------

・ プロフィール

・ 写真集

・ 軌道要素

Epoch 2024 Mar. 31.0 TT = JDT 2460400.5
T 2024 May 24.54818 TT                                  Rudenko
q   1.4645211            (2000.0)            P               Q
n   0.06003017     Peri.  313.08993     +0.94472337     -0.03342077
a   6.4598584      Node    51.61249     +0.23382387     +0.76602323
e   0.7732890      Incl.   24.58937     -0.22983507     +0.64194351
P  16.4
>From 103 observations 2007 Oct. 12-2024 June 7, mean residual 0".7.

・ 星図

・ 光度変化

        m1 = 10.3 + 5 logΔ + 25 log r(t - 50)

---------------------------------------------------------------------

軌道要素はM.P.E.C. 2024-L140に掲載されたものです。
星図はステラナビゲータ Ver.11 (アストロアーツ) で作成したものです。
光度グラフはComet for Windowsで作成したものです。

---------------------------------------------------------------------

Copyright(C) Seiichi Yoshida (comet@aerith.net). All rights reserved.